Home   Weather   Redlands   Past weeks

Flag for USA Past Weather in Redlands, California, USA — Yesterday and Last 2 Weeks

Now
95 °F

Partly sunny.


Feels Like: 91 °F
Forecast: 67 / 92 °F
Wind: 10 mph from Southeast

Location: Norton Air Force Base / San Bern

Current Time: Sep 27, 2016 at 3:30:07 PM

Latest Report: Sep 27, 2016 at 2:50 PM


Visibility: 7 mi

Pressure: 29.84 "Hg

Humidity: 15%

Dew Point: 41 °F

Location of RedlandsLocation

Past Weather in Redlands — Graph

°F

Redlands Temperature Yesterday

Maximum temperature yesterday: 100 °F (at 12:50 PM)
Minimum temperature yesterday: 67 °F (at 5:54 AM)
Average temperature yesterday: 80 °F

High & Low Weather Summary for the Past Weeks

 TemperatureHumidityPressure
High106 °F (Sep 18, 1:50 PM)78% (Sep 13, 7:00 AM)30.09 "Hg (Sep 13, 7:00 AM)
Low53 °F (Sep 23, 6:34 AM)6% (Sep 18, 12:48 PM)29.83 "Hg (Sep 21, 4:48 PM)
Average72 °F42%29.97 "Hg
* Reported Sep 12 12:49 PM — Sep 27 12:47 PM, Redlands, Weather by CustomWeather, © 2016

Note: Actual official high and low records may vary slightly from our data, if they occured in-between our weather recording intervals... More about our weather records

Advertising

Redlands Weather History for the Previous 24 Hours

Scroll right to see more
 ConditionsComfort  
Time TempWeatherWind HumidityBarometerVisibility
12:47 PM
Tue, Sep 27
93 °FPartly sunny.3 mph15%29.88 "Hg7 mi
11:48 AM91 °FPartly sunny.5 mph17%29.91 "Hg7 mi
10:55 AM91 °FPartly sunny.6 mph20%29.92 "Hg7 mi
9:46 AM82 °FPartly sunny.No wind21%29.94 "Hg7 mi
8:45 AM79 °FScattered clouds.No wind21%29.92 "Hg7 mi
7:47 AM75 °FScattered clouds.No wind25%29.91 "Hg7 mi
7:00 AM72 °FSunny.7 mph25%29.91 "Hg7 mi
6:33 AM72 °FClear.5 mph26%29.92 "Hg10 mi
6:13 AM73 °FClear.5 mph26%29.92 "Hg10 mi
5:54 AM71 °FClear.5 mph26%29.92 "Hg10 mi
5:33 AM71 °FClear.5 mph28%29.91 "Hg10 mi
5:14 AM72 °FClear.5 mph30%29.92 "Hg10 mi
4:53 AM69 °FClear.6 mph31%29.92 "Hg10 mi
4:34 AM69 °FClear.10 mph29%29.92 "Hg10 mi
4:13 AM69 °FClear.7 mph28%29.91 "Hg10 mi
3:53 AM74 °FClear.5 mph25%29.91 "Hg10 mi
3:33 AM72 °FClear.No wind25%29.91 "Hg10 mi
3:14 AM72 °FClear.No wind25%29.91 "Hg10 mi
2:53 AM70 °FClear.No wind27%29.92 "Hg10 mi
2:33 AM72 °FClear.6 mph26%29.92 "Hg10 mi
2:14 AM73 °FClear.3 mph26%29.92 "Hg10 mi
1:53 AM75 °FClear.5 mph24%29.93 "Hg10 mi
1:33 AM73 °FClear.5 mph24%29.93 "Hg10 mi
1:14 AM74 °FClear.6 mph24%29.93 "Hg10 mi
12:53 AM77 °FClear.5 mph21%29.94 "Hg10 mi
12:33 AM77 °FClear.5 mph23%29.94 "Hg10 mi
12:14 AM76 °FClear.3 mph24%29.94 "Hg10 mi
11:53 PM
Mon, Sep 26
75 °FClear.3 mph22%29.94 "Hg10 mi
11:33 PM76 °FClear.No wind22%29.94 "Hg10 mi
11:14 PM79 °FClear.5 mph21%29.94 "Hg10 mi
10:53 PM79 °FClear.5 mph20%29.94 "Hg10 mi
10:33 PM80 °FClear.3 mph21%29.94 "Hg10 mi
10:14 PM81 °FClear.6 mph19%29.94 "Hg10 mi
9:53 PM83 °FClear.8 mph17%29.94 "Hg10 mi
9:33 PM86 °FClear.5 mph15%29.94 "Hg10 mi
9:14 PM84 °FClear.3 mph16%29.94 "Hg10 mi
8:50 PM86 °FClear.No wind14%29.95 "Hg7 mi
7:50 PM90 °FPassing clouds.6 mph13%29.93 "Hg7 mi
6:50 PM91 °FPassing clouds.12 mph13%29.91 "Hg7 mi
5:50 PM97 °FPartly sunny.13 mph10%29.89 "Hg7 mi
4:49 PM100 °FPartly sunny.13 mph9%29.88 "Hg7 mi
3:47 PM100 °FPartly sunny.10 mph9%29.89 "Hg10 mi
Weather by CustomWeather, © 2016

See weather overviewHow to use our weather pages